Follow iAlert.com on twitter @ialertcom
Search For Active Alerts in Your Area  
  Hi Guest:  [ Sign-up / Services ] [ Login ]

Current weather by "City, St" or "zip code"  
 

Advertise Here

Current Conditions: Allentown Queen City Municipal Airport, PA

Heavy Rain


43.0 F

Last Updated on Feb 25 2018, 3:55 am EST
Humidity: 100%
Wind Speed: NE 10.4 mph
Barometer 30.08 in
Dewpoint: 42.8 F
Visibility: 5.00 mi
Precip: --
Heat Index: NA
Wind Chill: 37 F
Current conditions at:

Allentown Queen City Municipal Airport, PA (KXLL)

Lat: 40.57 Lon: 75.488

Local Radar Image active severe weather and emergency alerts image image weather storm and storm spotter reports image weather observation monitoring service image
Local
Radar
Active
Alerts
Storm Reports Obs
Monitoring

iAlert Weather and Emergency Alert Notification Services:


ialert severe weather and emergency alerts by text message and email ialert daily weather forecast by email and text message service ialert real-time weather-observation monitoring and alert notification service ialert storm report monitoring alert notification

Observation History for Allentown Queen City Municipal Airport, PA


Time Wind
(mph)
Vis
(mi)
Weather Precip (in) Temperature (F) Relative
Humidity
Wind
Chill
(°F)
Heat
Index
(°F)
Pressure
Air Dwpt altimeter
(in)
sea level
(mb)
3:55 am EST NE 10.4 5.00 Heavy Rain -- 43.0 42.8 100% 37 NA 30.08 M
3:35 am EST E 6.9 10.00 Light Rain -- 43.0 42.8 100% 39 NA 30.09 M
2:55 am EST NE 8.1 2.50 Rain -- 43.0 42.8 100% 38 NA 30.11 M
1:55 am EST NE 5.8 7.00 Light Rain -- 43.0 42.8 100% 39 NA 30.13 M
12:55 am EST NE 5.8 7.00 Overcast -- 43.0 42.8 100% 39 NA 30.16 M
12:35 am EST N 0.0 7.00 Overcast -- 43.0 42.8 100% NA NA 30.17 M
11:55 pm EST NE 6.9 7.00 Overcast -- 43.0 42.8 100% 39 NA 30.17 M
10:55 pm EST NE 8.1 10.00 Overcast -- 43.0 42.8 100% 38 NA 30.19 M
9:55 pm EST NE 10.4 7.00 Overcast -- 45.0 42.8 93% 40 NA 30.19 M
8:55 pm EST NE 6.9 7.00 Overcast -- 45.0 44.6 100% 41 NA 30.20 M
7:55 pm EST N 0.0 7.00 Overcast -- 45.0 44.6 100% NA NA 30.19 M
6:55 pm EST N 0.0 7.00 Light Snow -- 45.0 44.6 100% NA NA 30.21 M
5:55 pm EST N 0.0 10.00 Drizzle -- 46.0 44.6 93% NA NA 30.18 M
4:55 pm EST NE 5.8 10.00 Light Rain -- 46.0 44.6 93% 43 NA 30.16 M
4:35 pm EST NE 5.8 7.00 Light Rain -- 46.0 44.6 93% 43 NA 30.17 M
3:55 pm EST NW 5.8 5.00 Light Rain -- 46.0 44.6 93% 43 NA 30.21 M
2:55 pm EST N 3.5 10.00 Overcast -- 50.0 44.6 82% NA NA 30.16 M
1:55 pm EST N 0.0 10.00 Overcast -- 50.0 46.4 88% NA NA 30.15 M
12:55 pm EST N 0.0 7.00 Overcast -- 50.0 46.4 88% NA NA 30.19 M
11:55 am EST N 0.0 7.00 Mostly Cloudy -- 48.0 46.4 94% NA NA 30.19 M
10:55 am EST N 0.0 5.00 Light Rain -- 46.0 46.4 100% NA NA 30.19 M
9:55 am EST N 0.0 5.00 Fog/Mist -- 45.0 44.6 100% NA NA 30.19 M
8:55 am EST N 0.0 1.00 Fog/Mist -- 45.0 44.6 100% NA NA 30.19 M
7:55 am EST SW 3.5 0.25 Fog -- 43.0 42.8 100% NA NA 30.20 M

Regional Weather Observation


Allentown Queen City Municipal Airport, PA (KXLL)

Heavy Rain
43.0 F

Reading, Reading Regional Airport, PA (KRDG)

Rain Fog/Mist
45.0 F

Quakertown Airport, PA (KUKT)

Fog/Mist
43.0 F

Pottstown, Pottstown Limerick Airport, PA (KPTW)

Rain Fog/Mist
43.0 F

Doylestown, Doylestown Airport, PA (KDYL)

Rain
42.0 F

Mount Pocono, Pocono Mountains Municipal Airport, PA (KMPO)

Rain Fog/Mist
33.0 F

Advertise Here